Find Starlink 30586

NORAD ID: 58084 Int'l Des: 2023-160 Owner: SPXS Country: US Constellation: starlink operational
LEOCIRCULAR

当前视图

正在加载3D地球...

About Starlink 30586

Starlink 30586 (NORAD 58084) is a starlink constellation satellite (v2 mini) launched Oct 18, 2023 by SPXS of US. It operates in LEO, CIRCULAR orbit with a mass of 730.00 kg.

即将过境

Passes for default location (London). Set your location on the main map for personalized predictions.

高度历史

Loading altitude history...

两行轨道根数

1 58084U 23160K 26262.93940509 .00000697 00000-0 34854-4 0 9994
2 58084 43.0001 64.2844 0000640 297.6579 62.4208 15.27579534162614
Epoch: Sep 19, 2026 • Age: 17 hours

当前状态

高度 482.6 km
远地点 / 近地点 N/A
速度 7.63 km/s
星下点 21.91°N, 153.25°W
发射日期 Oct 18, 2023
运行时间 2.9 years
类型 internet

技术详情

分类 Payload
质量 730.00 kg
干质量 700.00 kg
长度 0.30 m
跨度 29.00 m
形状 ? Box + pan
制造商 SPXS
平台类型 Starlink V2M
阶段状态 In Orbit
所有者/国家 SPXS/US

Most Searched